Tracking 23114 objects as of 16-May-2021
HD Live streaming from Space Station
objects crossing your sky now

STARLINK-2466

Track STARLINK-2466 now!
10-day predictions
STARLINK-2466 is classified as:


NORAD ID: 48125
Int'l Code: 2021-027AK
Perigee: 407.4 km
Apogee: 408.8 km
Inclination: 53.0 °
Period: 92.6 minutes
Semi major axis: 6779 km
RCS: Unknown
Launch date: April 7, 2021
Source: United States (US)
Launch site: AIR FORCE EASTERN TEST RANGE (AFETR)
aabbcc
Your satellite tracking list
Your tracking list is empty




NASA's NSSDC Master Catalog

Two Line Element Set (TLE):
1 48125U 21027AK  21136.58334491 -.01091228  00000-0 -17371-1 0  9997
2 48125  53.0452 147.5755 0001087  96.9701 212.0212 15.55408102  1825
Source of the keplerian elements: AFSPC